Location: Unspecified
(0.0000°N, 0.0000°E)
Time: 03:42:41
(UTC+00:00)

ISS - Pass Details

Date: 23 November 2017
Orbit: 402 x 407 km, 51.6° (Epoch: 13 December)

Event Time Altitude Azimuth Distance (km) Brightness Sun altitude
Exits shadow 04:58:58 - 346° (NNW) 1,850 -0.8 -11.1°
Reaches altitude 10° 05:00:04 10° 353° (N) 1,441 -1.3 -10.8°
Maximum altitude 05:02:54 28° 55° (NE) 786 -2.0 -10.2°
Drops below altitude 10° 05:05:45 10° 116° (ESE) 1,448 0.6 -9.5°
Sets 05:08:00 0° 128° (SE) 2,310 1.7 -9.0°
